Location: Sagn�
(15.2046°N, 12.7898°W)
Time: 12:34:28
(UTC+00:00)

Meteor 2-3 Rocket - Pass Details

Date: 08 May 2021
Orbit: 841 x 887 km, 81.2° (Epoch: 14 June)

Event Time Altitude Azimuth Distance (km) Brightness Sun altitude
Rises 19:47:04 0° 357° (N) 3,406 7.2 -9.1°
Reaches altitude 10° 19:49:31 10° 360° (N) 2,465 6.4 -9.6°
Maximum altitude 19:55:04 73° 84° (E) 879 3.6 -10.9°
Drops below altitude 10° 20:00:36 10° 169° (SSE) 2,449 5.8 -12.1°
Sets 20:03:01 0° 171° (S) 3,382 6.5 -12.7°
